+43 3833 8250 0 office@segelflug.at

Wetter

ACHTUNG: Die hier angeboten Wetter-Informationen sind nicht geeicht und dürfen für Flugvorbereitungen nicht verwendet werden
ACG Flugwetter

METAR/TAF LOXZ

LOXZ 180620Z VRB01KT 15KM OVC035SC M02/M04 Q1026

TAF LOXZ 181415Z 1812/1824 CNL

METAR/TAF LOXA

LOXA 100820Z VRB02KT 50KM FEW120AC SCT300CI 17/13 Q1021 NOSIG RMK SCT

TAF TAF LOXA 090515Z 0906/0918 VRB03KT 0500 FG SCT060 BECMG 0906/0908 9999 NSW FEW060 BECMG 0909/0911 04007KT TEMPO 0910/0915 SCT060 BKN100

METAR/TAF LOWG 

LOWG 180620Z VRB02KT 9999 FEW035 BKN037 01/M01 Q1026 NOSIG

TAF COR LOWG 180535Z 1806/1906 VRB02KT 9999 SCT040 BKN050 TX05/1813Z TNM01/1906Z TEMPO 1810/1816 06008KT TEMPO 1900/1906 8000 -SN OVC020

(Information der letzten Stunde)

(Information der letzten Stunde)

Dichtehöhe (in LOGT)
Temperatur / Windchill der letzten 10 Tage

Ext. Links zu Wetterdiensten

ALDIS

Öster.- Unwetterzentrale